Regional Weather Roundup
Issued by NWS

Home | Current Version | Previous Version | Graphics & Text | Print | Product List | Glossary On
Versions: 1 2 3 4 5 6 7 8 9 10 11 12 13 14 15 16 17 18 19 20 21 22 23 24 25 26 27 28 29 30 31 32 33 34 35 36 37 38 39 40 41 42 43 44 45 46 47 48 49 50
000
ASUS43 KIND 030659
RWRIN

WEATHER ROUNDUP FOR INDIANA
NATIONAL WEATHER SERVICE INDIANAPOLIS IN
200 AM EST SAT DEC 03 2016

NOTE: "FAIR" INDICATES FEW OR NO CLOUDS BELOW 12,000 FEET WITH NO
SIGNIFICANT WEATHER AND/OR OBSTRUCTIONS TO VISIBILITY.

* - STATION DOES NOT REPORT WEATHER SUCH AS PRECIPITATION OR FOG.

+ - STATION NOT QUALITY CONTROLLED BY THE NATIONAL WEATHER SERVICE.
    USE DATA WITH CAUTION...ESPECIALLY DEWPOINT AND RELATIVE
    HUMIDITY OBSERVATIONS.

INZ001>003-010>013-019-020-030800-
NORTHWEST INDIANA

CITY           SKY/WX    TMP DP  RH WIND       PRES   REMARKS
GARY /AIRPORT/ CLOUDY    36  25  64 W7        30.32S
LA PORTE +     CLOUDY    36  31  82 W6        30.30S
VALPARAISO     CLOUDY    35  25  66 W6        30.30S WCI  30

$$

LMZ046-743>745-030800-
SOUTHERN LAKE MICHIGAN

STATION/POSITION TIME  TEMP    WIND        PRES    WAVE
                       AIR SEA DIR/SP/G            HT
                 (UTC) (F)     (DEG/KT/KT) (MB)    (FT)
BURNS HARBOR     0640   38     260/  9/ 14 1026.8R
MICHIGAN CITY    0630   37     270/ 12/ 14   N/A

$$

INZ004-005-014>016-021>024-030800-
NORTH CENTRAL INDIANA

CITY           SKY/WX    TMP DP  RH WIND       PRES   REMARKS
GOSHEN         CLOUDY    35  27  72 W6        30.29R WCI  30
SOUTH BEND     CLOUDY    35  27  72 CALM      30.30S
WARSAW +       CLOUDY    34  28  80 W5        30.29S WCI  30

$$

INZ006>009-017-018-025>027-030800-
NORTHEAST INDIANA

CITY           SKY/WX    TMP DP  RH WIND       PRES   REMARKS
ANGOLA *+      CLOUDY    36  28  75 W3        30.26S
FORT WAYNE     CLOUDY    35  29  78 W5        30.29R WCI  31
KENDALLVILLE + CLOUDY    34  28  79 W5        30.27S WCI  30

$$

INZ028-029-035-036-043>045-051>053-030800-
WEST CENTRAL INDIANA

CITY           SKY/WX    TMP DP  RH WIND       PRES   REMARKS
CRAWFORDSVL +  CLOUDY    35  32  89 W5        30.32R WCI  31
GREENCASTLE +  CLOUDY    36  34  93 W3        30.33R
LAFAYETTE      CLOUDY    36  31  82 CALM      30.32S
TERRE HAUTE    CLOUDY    39  32  76 W5        30.35R

$$

INZ030>032-037>040-046>048-054>057-064-065-030800-
CENTRAL INDIANA

CITY           SKY/WX    TMP DP  RH WIND       PRES   REMARKS
FRANKFORT +    CLOUDY    38  31  76 NW6       30.32R
GREENWOOD *+   CLOUDY    38  35  89 CALM      30.32R
INDIANAPOLIS   NOT AVBL
-EAGLE CREEK   CLOUDY    38  34  85 SW3       30.31R
KOKOMO +       CLOUDY    36  32  85 NW5       30.30F
SHELBYVILLE    CLOUDY    38  34  85 SW5       30.31S
ZIONSVILLE +   CLOUDY    35  32  90 NW3       30.30F

$$

INZ033-034-041-042-049-050-058-059-030800-
EAST CENTRAL INDIANA

CITY           SKY/WX    TMP DP  RH WIND       PRES   REMARKS
MUNCIE         CLOUDY    37  32  82 NW5       30.29F

$$

INZ060-061-067>069-081>083-085>088-030800-
SOUTHWEST INDIANA

CITY           SKY/WX    TMP DP  RH WIND       PRES   REMARKS
EVANSVILLE     NOT AVBL
HUNTINGBURG *+ CLOUDY    39  32  75 W3        30.36R

$$

INZ062-063-066-070>080-084-089>092-030800-
SOUTH CENTRAL AND SOUTHEAST INDIANA

CITY           SKY/WX    TMP DP  RH WIND       PRES   REMARKS
BLOOMINGTON    CLOUDY    38  31  76 CALM      30.33R
MADISON *+     CLOUDY    37  32  81 CALM      30.34R
SEYMOUR +      CLOUDY    39  32  75 CALM      30.34R

$$





USA.gov is the U.S. government's official web portal to all federal, state and local government web resources and services.